#timestamp,LO_Frequency,Hit,StdDev 
1595776875.7,286046990.4,P
1595776895.6,286046990.8,P
1595776915.4,286046991.5,P
1595776935.3,286046991.5,Y
1595776955.1,286046998.9,P
1595776956.0,286046998.9,N
1595776975.8,286046998.8,N
1595776995.7,286046998.4,N
1595777015.5,286046999.3,N
1595777035.3,286046999.3,N
1595777055.2,286046999.0,N
1595777075.0,286046996.8,N
1595777075.9,286046996.8,N
1595777095.8,286046997.7,N
1595777115.6,286046997.0,N
1595777135.4,286046997.1,N
1595777155.3,286046999.5,N
1595777175.1,286046999.5,N
1595777195.9,286046996.9,N
1595777215.7,286046996.5,N
1595777235.5,286046996.6,N
1595777255.4,286046997.0,N
1595777275.2,286046997.9,N
1595777295.0,286046997.6,N
1595777295.9,286046997.6,N
1595777315.8,286046996.8,N
1595777335.6,286046997.0,N
1595777355.5,286046997.1,N
1595777375.3,286046997.3,N
1595777395.1,286046998.0,N
1595777415.9,286046995.4,N
1595777435.7,286046994.9,Y
1595777455.5,286046998.9,P
1595777475.4,286046996.6,P
1595777495.2,286046996.5,P
1595777515.1,286046999.6,N
1595777516.0,286046999.6,N
1595777535.8,286046996.5,N
1595777555.6,286046997.2,N
1595777575.5,286046997.8,N
1595777595.3,286046997.8,N
1595777615.1,286046997.3,N
1595777635.9,286046997.5,N
1595777655.7,286046997.6,N
1595777675.6,286046997.9,N
1595777695.4,286046997.6,N
1595777715.2,286046997.7,N
1595777735.1,286046995.4,Y
1595777736.0,286046995.4,P
1595777755.8,286046999.5,N
1595777775.7,286046999.0,N
1595777795.5,286046998.7,N
1595777815.3,286046998.5,N
1595777835.2,286046998.6,N
1595777855.0,286046998.4,N
1595777855.9,286046998.4,N
1595777875.7,286046998.6,N
1595777895.6,286046998.1,N
1595777915.4,286047000.6,N
1595777935.3,286047000.7,N
1595777955.1,286047000.5,N
1595777956.0,286047000.5,N
1595777975.8,286047000.9,N
1595777995.7,286047000.3,N
1595778015.5,286046999.9,N
1595778035.3,286047000.6,N
1595778055.2,286047000.7,N
1595778075.0,286047000.7,N
1595778075.9,286047000.7,N
1595778095.8,286047000.8,N
1595778115.6,286047000.6,N
1595778135.4,286046998.6,N
1595778155.3,286046998.2,N
1595778175.1,286047001.2,N
1595778195.9,286047000.5,N
1595778215.7,286047000.0,N
1595778235.5,286047000.5,N
1595778255.4,286047000.4,N
1595778275.2,286047000.1,N
1595778295.0,286046998.1,N
1595778295.9,286046998.1,N
1595778315.8,286047000.7,N
1595778335.6,286047000.7,N
1595778355.5,286047001.1,N
1595778375.3,286047000.7,N
1595778395.1,286047000.3,N
1595778415.9,286046999.9,N
1595778435.7,286047000.5,N
1595778455.5,286047000.6,N
1595778475.4,286047000.4,N
1595778495.2,286047000.0,N
1595778515.0,286047000.0,N
1595778516.0,286047000.0,N
1595778535.8,286047000.5,N
1595778555.6,286047000.5,N
1595778575.5,286047001.1,N
1595778595.3,286046998.2,N
1595778615.1,286047000.8,N
1595778635.9,286047000.0,N
1595778655.7,286047000.0,N
1595778675.6,286047000.9,N
1595778695.4,286047000.8,N
1595778715.2,286047001.2,N
1595778735.1,286047000.0,N
1595778736.0,286047000.0,N
1595778755.8,286047000.9,N
1595778775.6,286047000.4,N
1595778795.5,286047000.6,N
1595778815.3,286047000.4,N
1595778835.2,286047000.8,N
1595778855.9,286047000.8,N
1595778875.7,286046998.6,N
1595778895.6,286047000.7,N
1595778915.4,286047001.0,N
1595778935.3,286047000.4,N
1595778955.1,286047000.5,N
1595778956.0,286047000.5,N
1595778975.8,286047000.2,N
1595778995.7,286046998.2,N
1595779015.5,286046998.6,N
1595779035.3,286046998.5,N
1595779055.2,286046998.4,N
1595779075.0,286046998.1,N
1595779075.9,286046998.1,N
1595779095.8,286047000.0,N
1595779115.6,286046998.2,N
1595779135.4,286046998.6,N
1595779155.3,286046998.3,N
1595779175.1,286046998.6,N
1595779195.9,286047000.8,N
